Location: Asheville, NC
(35.6000°N, 82.5500°W)
Time: 20:14:06
(UTC-04:00)

ZACube-1 - Pass Details

Date: 15 March 2018
Orbit: 584 x 668 km, 97.6° (Epoch: 24 June)

Event Time Altitude Azimuth Distance (km) Brightness Sun altitude
Rises 20:10:09 0° 147° (SSE) 2,884 ? -7.4°
Reaches altitude 10° 20:12:28 10° 139° (SE) 1,968 ? -7.9°
Maximum altitude 20:16:22 36° 73° (ENE) 971 ? -8.7°
Drops below altitude 10° 20:20:13 10° 7° (N) 1,938 ? -9.4°
Sets 20:22:29 0° 359° (N) 2,834 ? -9.9°
